User: anonymous   Login
Location: Castiglione Fibocchi
(43.5333°N, 11.7667°E)
Time: 16:05:55
(UTC+00:00)
Language:

NOSS 2-2 (C) - Orbit

View from above orbital plane
View from above orbital plane
View from above satellite
View from above satellite

Ground track
Ground track

The orbit data is extracted from the following two-line orbital elements,

1 21799U 91076C   20293.76728950 0.00000320  00000-0  58593-4 0    03
2 21799  63.3268 180.8596 0849455  40.0995 319.9005 13.41362738    02
Epoch (UTC): 19 October 2020 18:24:53
Eccentricity: 0.0849455
inclination: 63.3268°
perigee height: 468 km
apogee height: 1740 km
right ascension of ascending node: 180.8596°
argument of perigee: 40.0995°
revolutions per day: 13.41362738
mean anomaly at epoch: 319.9005°
orbit number at epoch: 0

The dashed part of the orbit path shows where the satellite is in the earth's shadow,  

DLR